FLOCK 3P-71 (42024 NORAD) Tracking and Keplerian Element Data

This shows tracking and keplerian element data for the satellite.

Feedback or suggestion? Click here.




ElementValue
Catalog42024
NameFLOCK 3P-71
Epoch Orbit5434
Epoch Day45.85084697
Epoch Year2018
RAAN111.4626
Inclination97.4682
Eccentricity0.0009892
Argument of Perigee72.248
Mean Anonmoly287.9836
Mean Motion15.23933841
Decay Rate3.24E-05
L11 42024U 17008CE 18045.85084697 .00003240 00000-0 13686-3 0 9999
L22 42024 97.4682 111.4626 0009892 72.2480 287.9836 15.23933841 54340

Live tracking and technical data element details for FLOCK 3P-71 (NORAD 42024). FLOCK 3P-71 can be tracked NOW for your location showing map with azimuth and elevation plus other details from your city location.

Track the satellite on the map from your city or location and see movement details for azimuth, elevation, latitude, longitude, range, height, and movement on the map or in text.







IsCatalogInMostPopularTable: catalog: 42024, numindb: 132
Update: records affected: 1



GetName: 42024 FLOCK 3P-71

Hit Count: updated at: Mon, 12 Nov 2018 17:55:05 GMT